Weather History for Gwinn, MI

Change the Weather History Date:

Saturday, September 21, 2013

  Actual Average (KESC) Record (KESC)
Temperature  
Mean Temperature 46 °F -  
Max Temperature 50 °F 61 °F 78 °F (2010)
Min Temperature 41 °F 47 °F 31 °F (1956)
Degree Days  
Heating Degree Days 20    
Moisture  
Dew Point 42 °F    
Average Humidity 85    
Maximum Humidity 95    
Minimum Humidity 66    
Precipitation  
Precipitation 0.00 in - - ()
Sea Level Pressure  
Sea Level Pressure 29.83 in    
Wind  
Wind Speed 6 mph (NNW)    
Max Wind Speed 15 mph    
Max Gust Speed 25 mph    
Visibility 9 miles    
Events Rain    
Averages and records for this station are not official NWS values.
T = Trace of Precipitation, MM = Missing Value Source: NWS Daily Summary

Daily Weather History Graph

Daily Weather History Graph

Search for Another Location

Airport:

Trip Planner

Search our weather history database for the weather conditions in past years. The results will help you decide how hot, cold, wet, or windy it might be!

Date:

Astronomy

Sep. 21, 2013 Rise Set
Actual Time 7:35 AM EDT 7:48 PM EDT
Civil Twilight 7:05 AM EDT 8:18 PM EDT
Nautical Twilight 6:30 AM EDT 8:53 PM EDT
Astronomical Twilight 5:53 AM EDT 9:30 PM EDT
Moon 8:47 PM EDT (9/21) 10:04 AM EDT (9/21)
Length of Visible Light 13h 13m
Length of Day
12h 13m
Waning Gibbous, 94% of the Moon is Illuminated
Sep 21
Waning Gibbous
Sep 26
Last Quarter
Oct 4
New
Oct 11
First Quarter
Oct 18
Full

Hourly Weather History & Observations

Time (EDT) Temp. Windchill Dew Point Humidity Pressure Visibility Wind Dir Wind Speed Gust Speed Precip Events Conditions
12:17 AM 50.4 °F - 45.9 °F 85% 29.76 in 10.0 mi NW 9.2 mph - N/A   Scattered Clouds
12:36 AM 50.5 °F - 46.6 °F 86% 29.76 in 10.0 mi NNW 5.8 mph - N/A   Mostly Cloudy
12:56 AM 50.9 °F - 46.8 °F 86% 29.77 in 10.0 mi NNW 4.6 mph - N/A   Overcast
1:17 AM 50.2 °F - 46.8 °F 88% 29.77 in 10.0 mi North 4.6 mph - N/A   Mostly Cloudy
1:36 AM 49.5 °F - 46.6 °F 90% 29.76 in 10.0 mi NNW 3.5 mph - N/A   Mostly Cloudy
1:57 AM 49.5 °F - 46.8 °F 90% 29.77 in 10.0 mi NNW 3.5 mph - N/A   Overcast
2:16 AM 49.3 °F - 46.4 °F 90% 29.77 in 10.0 mi NNW 3.5 mph - N/A   Mostly Cloudy
2:36 AM 48.7 °F - 46.4 °F 92% 29.77 in 10.0 mi Calm Calm - N/A   Mostly Cloudy
2:57 AM 48.2 °F - 46.0 °F 92% 29.77 in 10.0 mi Calm Calm - N/A   Scattered Clouds
3:16 AM 47.3 °F - 45.3 °F 93% 29.76 in 10.0 mi Calm Calm - N/A   Clear
3:37 AM 46.8 °F - 45.0 °F 93% 29.76 in 10.0 mi West 4.6 mph - N/A   Scattered Clouds
3:57 AM 46.6 °F - 44.8 °F 93% 29.76 in 10.0 mi West 5.8 mph - N/A   Mostly Cloudy
4:17 AM 47.3 °F - 45.5 °F 93% 29.76 in 7.0 mi West 4.6 mph - N/A   Overcast
4:37 AM 47.7 °F - 45.7 °F 93% 29.76 in 10.0 mi NNW 4.6 mph - N/A   Overcast
4:56 AM 47.3 °F - 45.5 °F 93% 29.77 in 10.0 mi Calm Calm - N/A   Overcast
5:17 AM 47.7 °F - 46.4 °F 95% 29.77 in 10.0 mi NNW 5.8 mph - N/A   Overcast
5:36 AM 48.2 °F - 46.8 °F 95% 29.77 in 4.0 mi NNW 5.8 mph - N/A   Light Drizzle
5:57 AM 48.0 °F - 46.2 °F 93% 29.78 in 5.0 mi North 10.4 mph - N/A   Overcast
6:50 AM 46.4 °F 42.9 °F 44.6 °F 93% 29.79 in 10.0 mi NNW 6.9 mph - N/A   Overcast
7:50 AM 44.6 °F 41.4 °F 42.8 °F 93% 29.80 in 10.0 mi NW 5.8 mph - N/A   Mostly Cloudy
8:50 AM 46.4 °F 44.3 °F 42.8 °F 87% 29.81 in 10.0 mi NW 4.6 mph - N/A   Scattered Clouds
9:50 AM 48.2 °F - 41.0 °F 76% 29.82 in 10.0 mi NNW 11.5 mph 21.9 mph N/A   Scattered Clouds
11:10 AM 48.2 °F - 37.4 °F 66% 29.83 in 10.0 mi NNW 15.0 mph 23.0 mph N/A   Mostly Cloudy
11:50 AM 48.2 °F - 37.4 °F 66% 29.84 in 10.0 mi NNW 12.7 mph - N/A   Overcast
12:45 PM 48.2 °F - 37.4 °F 66% 29.85 in 10.0 mi NNW 15.0 mph 25.3 mph N/A   Overcast
1:50 PM 48.2 °F - 41.0 °F 76% 29.86 in 10.0 mi North 15.0 mph - N/A   Overcast
2:50 PM 48.2 °F - 41.0 °F 76% 29.86 in 10.0 mi North 11.5 mph 17.3 mph N/A   Overcast
3:50 PM 48.2 °F - 37.4 °F 66% 29.87 in 10.0 mi NNW 9.2 mph 16.1 mph N/A   Overcast
4:50 PM 48.2 °F - 37.4 °F 66% 29.88 in 10.0 mi NNW 13.8 mph 23.0 mph N/A   Overcast
5:55 PM 48.2 °F - 37.4 °F 66% 29.89 in 10.0 mi NW 9.2 mph 19.6 mph N/A   Overcast
6:55 PM 46.4 °F 40.4 °F 37.4 °F 71% 29.91 in 10.0 mi NW 13.8 mph 19.6 mph N/A   Overcast
7:50 PM 44.6 °F 42.2 °F 37.4 °F 76% 29.91 in 10.0 mi NNW 4.6 mph - N/A   Scattered Clouds
8:50 PM 41.0 °F 36.4 °F 35.6 °F 81% 29.92 in 10.0 mi NNW 6.9 mph - N/A   Scattered Clouds
9:50 PM 41.0 °F 35.8 °F 39.2 °F 93% 29.93 in 7.0 mi NNW 8.1 mph - N/A Rain Rain
10:17 PM 41.9 °F 37.5 °F 39.0 °F 90% 29.94 in 7.0 mi WNW 6.9 mph - N/A Rain Light Rain
10:37 PM 41.5 °F 37.1 °F 39.2 °F 91% 29.94 in 10.0 mi NW 6.9 mph - N/A Rain Light Rain
10:56 PM 41.4 °F 38.4 °F 39.6 °F 93% 29.95 in 5.0 mi NNW 4.6 mph - N/A Rain Light Rain
11:17 PM 41.4 °F 36.8 °F 40.1 °F 95% 29.95 in 10.0 mi NNW 6.9 mph - N/A Rain Light Rain
11:36 PM 41.9 °F 38.2 °F 40.5 °F 95% 29.95 in 7.0 mi NNW 5.8 mph - N/A   Light Drizzle
11:57 PM 42.3 °F 38.6 °F 40.3 °F 93% 29.95 in 10.0 mi NNW 5.8 mph - N/A   Overcast